Flag for U.S.A. Weather past 2 weeks in Black Mountain, North Carolina, U.S.A.

Now
68 °F

Sunny.


Feels Like: 68 °F
Forecast: 46 / 73 °F
Wind: 6 mph from North

Location: Asheville Regional Airport

Current Time: May 3, 2015 at 1:09:18 PM

Latest Report: May 3, 2015 at 11:54 AM


Visibility: 10 mi

Pressure: 30.17 "Hg

Humidity: 40%

Dew point: 43 °F

Location of Black MountainLocation

Historic Weather in Black Mountain — Graph

°F

Black Mountain temperature yesterday

Maximum temperature yesterday: 71 °F (at 3:54 PM)
Minimum temperature yesterday: 44 °F (at 4:54 AM)
Average temperature yesterday: 58 °F

Past Weeks' High & Low Weather Summary

 TemperatureHumidityPressure
High72 °F (Apr 18, 12:54 PM)97% (Apr 19, 6:59 AM)30.19 "Hg (Apr 19, 6:59 AM)
Low37 °F (Apr 22, 6:54 AM)17% (Apr 24, 4:54 PM)29.54 "Hg (Apr 26, 1:54 AM)
Average57 °F61%29.86 "Hg
* Reported Apr 18 11:54 AM — May 3 11:54 AM, Black Mountain, Weather by CustomWeather, © 2015

Note: Actual official high and low records may vary slightly from our data, if they occured in-between our weather recording intervals... More about our weather records

Advertising

Black Mountain weather history for previous 24 hours

 ConditionsComfort  
Time TempWeatherWind HumidityBarometerVisibility
11:54 AM
Sun, May 3
68 °FSunny.6 mph40%30.17 "Hg10 mi
10:54 AM64 °FSunny.No wind47%30.18 "Hg10 mi
9:54 AM59 °FSunny.No wind56%30.19 "Hg10 mi
8:54 AM50 °FSunny.No wind77%30.19 "Hg10 mi
7:54 AM47 °FSunny.No wind83%30.17 "Hg10 mi
6:54 AM43 °FClear.No wind89%30.16 "Hg10 mi
5:54 AM43 °FClear.No wind89%30.14 "Hg10 mi
4:54 AM43 °FClear.3 mph89%30.12 "Hg10 mi
3:54 AM46 °FClear.No wind83%30.11 "Hg10 mi
2:54 AM47 °FClear.No wind83%30.11 "Hg10 mi
1:54 AM50 °FClear.No wind74%30.12 "Hg10 mi
12:54 AM51 °FClear.No wind74%30.12 "Hg10 mi
11:54 PM
Sat, May 2
56 °FPassing clouds.No wind58%30.11 "Hg10 mi
10:54 PM59 °FOvercast.No wind49%30.10 "Hg10 mi
9:54 PM61 °FOvercast.6 mph44%30.09 "Hg10 mi
8:54 PM63 °FOvercast.6 mph38%30.06 "Hg10 mi
7:54 PM66 °FScattered clouds.7 mph33%30.04 "Hg10 mi
6:54 PM69 °FSunny.10 mph26%30.02 "Hg10 mi
5:54 PM71 °FSunny.10 mph23%30.01 "Hg10 mi
4:54 PM71 °FSunny.10 mph22%30.02 "Hg10 mi
3:54 PM71 °FSunny.14 mph23%30.03 "Hg10 mi
2:54 PM70 °FSunny.13 mph29%30.06 "Hg10 mi
1:54 PM68 °FSunny.5 mph35%30.08 "Hg10 mi
Weather by CustomWeather, © 2015

See weather overviewHow to use our weather pages